Location: Unspecified
(17.6330°N, 0.0000°E)
Time: 01:29:31
(UTC+00:00)

Courier 1B Rocket - Pass Details

Date: 28 June 2019
Orbit: 920 x 1202 km, 28.3° (Epoch: 19 August)

Event Time Altitude Azimuth Distance (km) Brightness Sun altitude
Exits shadow 01:34:46 31° 44° (NE) 1,839 6.7 -43.4°
Drops below altitude 10° 01:38:25 10° 59° (ENE) 2,927 8.0 -42.9°
Sets 01:41:09 0° 64° (ENE) 3,841 8.7 -42.6°
